Location: ?ejkovice
(49.0137°N, 14.3821°E)
Time: 23:09:12
(UTC+00:00)

Cosmos 968 Rocket - Pass Details

Date: 09 August 2024
Orbit: 738 x 767 km, 74.0° (Epoch: 08 September)

Event Time Altitude Azimuth Distance (km) Brightness Sun altitude
Rises 20:40:45 0° 331° (NNW) 3,227 8.4 -17.7°
Reaches altitude 10° 20:43:14 10° 324° (NW) 2,292 7.3 -18.0°
Maximum altitude 20:48:04 41° 256° (WSW) 1,090 4.4 -18.4°
Enters shadow 20:51:11 20° 197° (SSW) 1,690 4.9 -18.7°
